Cloud_Cover
0 0 39 100 6 0 78 100 100 100 100 100 100 100 100 98 100 100 100 100 100 100 99 93 100 100 100 100 100 100 99 100 100 100 100 100 100 100 100 100 99 100 100 100 100
7 21 0 19 4 23 1 76 100 100 100 100 100 100 100 100 97 56 100 100 100 100 100 100 100 100 100 100 100 98 81 100 100 100 100 100 100 100 100 100 98 100 100 100 100
0 0 20 3 2 94 100 98 97 100 100 100 100 100 100 89 43 100 59 98 81 97 96 100 100 100 100 100 100 100 100 100 100 100 100 100 100 100 100 99 100 100 100 100 100
0 0 0 0 0 0 0 0 20 100 100 100 100 100 100 100 79 2 4 93 100 90 80 99 100 100 100 97 100 100 99 99 100 100 100 100 100 100 100 100 100 100 65 77 100
0 0 0 0 0 0 0 0 0 0 0 12 52 76 50 100 89 98 100 59 6 99 88 31 15 96 100 100 100 100 96 90 98 100 88 86 100 100 100 100 100 100 92 8 5
0 0 0 0 0 0 0 0 0 0 0 0 0 44 56 55 100 55 100 100 100 100 100 100 99 78 8 51 96 100 99 48 5 9 100 100 100 100 100 100 100 100 22 3 5
0 0 0 0 0 0 0 5 0 0 0 0 12 78 59 2 0 3 0 33 76 100 98 61 100 100 59 1 20 31 43 17 24 78 85 100 100 100 100 100 98 10 0 0 0
0 0 0 0 0 0 0 0 0 3 4 1 44 47 32 0 0 0 0 0 0 0 1 81 94 47 98 99 31 1 29 31 53 100 100 100 99 100 100 92 6 5 1 0 1
0 0 0 0 0 0 0 0 0 0 9 0 37 16 1 5 0 0 0 0 0 0 0 1 0 0 0 0 0 84 36 13 98 100 100 100 45 60 60 5 0 0 3 25 16
0 0 0 0 0 0 1 0 0 0 0 2 48 68 1 9 5 4 0 0 0 0 0 0 0 0 0 0 0 4 100 100 100 100 26 10 0 1 4 0 0 3 2 3 3
0 0 0 0 0 11 21 0 0 0 5 56 44 100 2 0 3 81 36 5 0 0 0 0 0 0 0 0 0 0 0 0 0 99 100 6 0 0 0 0 0 0 0 4 5
0 0 0 0 0 0 7 7 91 16 11 0 0 0 0 0 0 0 84 98 26 0 0 0 0 0 0 0 0 0 0 0 0 2 40 71 0 0 0 0 0 0 0 0 0
0 0 3 0 0 0 5 73 19 8 0 0 0 0 0 0 0 0 0 41 100 83 11 0 0 0 0 0 0 0 0 0 0 0 0 0 0 0 0 0 0 0 0 0 0
0 0 23 0 1 0 0 0 0 1 3 72 96 81 2 0 0 0 0 0 21 100 100 3 0 0 0 0 0 0 0 0 0 0 0 0 0 0 0 0 0 0 0 0 0
0 0 1 1 0 0 0 3 39 2 95 100 94 98 85 61 100 88 35 3 0 5 91 39 8 3 0 0 0 0 0 0 0 0 0 0 0 0 0 0 0 0 0 0 0
0 0 1 0 0 0 0 2 100 100 100 98 100 88 98 100 60 20 100 26 67 44 4 9 5 5 2 1 0 0 0 0 0 0 0 0 0 0 0 0 0 0 0 0 2
0 0 24 0 0 0 0 4 94 69 100 100 100 100 100 100 100 100 100 100 98 74 1 2 10 5 5 5 0 0 0 0 0 0 0 0 0 0 3 0 0 0 0 0 0
0 0 0 0 4 0 2 5 9 50 99 17 100 100 100 100 100 99 97 85 98 99 0 24 31 1 5 23 5 5 1 0 0 0 0 0 0 0 0 0 0 0 0 0 0
5 5 0 1 0 1 3 5 6 65 96 44 4 5 59 64 96 54 2 0 2 96 13 39 15 92 36 1 5 44 4 2 0 0 0 0 0 0 0 0 0 0 0 0 0
100 5 2 5 0 2 47 4 77 100 23 100 64 17 5 100 100 100 100 96 26 33 11 16 0 91 100 63 0 5 21 3 0 0 0 0 0 0 0 0 0 0 0 0 0
14 31 5 9 0 5 55 5 18 100 100 100 92 4 24 100 89 89 100 65 96 100 65 74 9 13 100 100 1 0 8 4 0 0 0 0 0 5 93 7 0 0 0 1 0
2 40 5 5 9 10 52 5 80 86 20 19 14 100 98 7 68 80 97 98 100 86 86 85 17 40 55 88 22 0 0 64 67 3 2 4 3 36 67 31 4 0 0 2 0
66 71 41 34 12 5 42 76 8 5 19 36 0 22 6 7 85 100 97 100 100 90 100 99 6 49 7 76 92 4 2 4 5 100 12 64 4 24 99 90 2 0 0 4 9
25 31 87 40 14 5 37 14 17 90 48 5 5 76 100 59 76 100 98 46 90 100 100 64 73 50 55 100 100 61 3 100 24 23 71 5 90 64 89 3 0 0 1 5 98
10 16 42 79 100 35 100 47 96 32 100 44 83 30 53 33 3 2 68 85 90 100 100 100 98 100 42 99 89 37 52 67 3 1 14 84 30 3 36 2 0 3 1 50 100
12 36 100 100 66 59 77 61 99 100 87 100 100 71 99 100 84 6 5 16 8 100 100 100 100 100 100 100 100 32 92 5 1 0 2 34 66 100 100 95 0 0 32 100 100
5 16 82 85 100 73 81 92 100 99 99 6 73 79 79 100 90 31 39 5 56 100 100 98 84 100 100 100 100 13 34 5 0 0 2 66 57 11 54 100 20 1 99 100 100